This is the latest recevied weather packets stored in our database for station/object KG7BDA. If no packets are shown the sender has not sent any weather packets the latest 10 day(s).
| Time | Temp. | Humidity | Pressure | Rain* | Wind** | Luminosity | Snow |
|---|---|---|---|---|---|---|---|
| 1778097803 | 20° C | 28% | 1019.7 hPa | 0 mm | - | - | - |
| 1778097443 | 20° C | 27% | 1019.7 hPa | 0 mm | - | - | - |
| 1778096723 | 19.44° C | 28% | 1019.7 hPa | 0 mm | - | - | - |
| 1778096363 | 18.89° C | 29% | 1019.9 hPa | 0 mm | - | - | - |
| 1778096004 | 18.89° C | 28% | 1019.9 hPa | 0 mm | - | - | - |
| 1778095723 | 18.89° C | 28% | 1020.1 hPa | 0 mm | - | - | - |
| 1778095643 | 18.89° C | 28% | 1020.1 hPa | 0 mm | - | - | - |
| 1778095283 | 18.89° C | 28% | 1020.1 hPa | 0 mm | - | - | - |
| 1778094923 | 18.89° C | 28% | 1020.2 hPa | 0 mm | - | - | - |
| 1778094563 | 18.33° C | 29% | 1020.4 hPa | 0 mm | - | - | - |
| 1778094203 | 18.33° C | 27% | 1020.3 hPa | 0 mm | - | - | - |
| 1778093843 | 18.33° C | 29% | 1020.4 hPa | 0 mm | - | - | - |
| 1778093483 | 17.78° C | 27% | 1020.6 hPa | 0 mm | - | - | - |
| 1778093123 | 17.78° C | 29% | 1020.6 hPa | 0 mm | - | - | - |
| 1778092763 | 17.78° C | 28% | 1020.7 hPa | 0 mm | - | - | - |
| 1778092403 | 17.22° C | 29% | 1020.7 hPa | 0 mm | - | - | - |
| 1778092043 | 17.22° C | 28% | 1020.8 hPa | 0 mm | - | - | - |
| 1778091322 | 16.67° C | 31% | 1020.6 hPa | 0 mm | - | - | - |
| 1778090603 | 16.67° C | 28% | 1020.8 hPa | 0 mm | - | - | - |
| 1778090243 | 16.67° C | 28% | 1021.1 hPa | 0 mm | - | - | - |
| 1778089883 | 16.67° C | 29% | 1021 hPa | 0 mm | - | - | - |
| 1778089523 | 16.11° C | 29% | 1021 hPa | 0 mm | - | - | - |
| 1778089163 | 16.11° C | 29% | 1020.9 hPa | 0 mm | - | - | - |
| 1778088802 | 15.56° C | 30% | 1020.9 hPa | 0 mm | - | - | - |
| 1778088443 | 15.56° C | 30% | 1021.1 hPa | 0 mm | - | - | - |
* Rain latest hour (hover to see other rain measurements)
** Current wind speed in m/s (hover to see current wind gust speed)